EW9051 Weather Reports


time (UTC)temp
F
wind
direction
speed
knots
gust
knots
rain 1hr
in
rain 24hr
in
rain mn
in
humidity
%
barometer
mb
20260507072603 41 113 0.9 2.6 0.00 0.00 0.00 61 1013.5
20260507071103 41 88 1.7 2.6 0.00 0.00 0.00 60 1013.5
20260507065603 41 106 0.9 2.6 0.00 0.00 0.00 60 1013.9
20260507064603 41 102 1.7 2.6 0.00 0.00 0.00 60 1013.9
20260507064103 41 100 1.7 5.2 0.00 0.00 0.00 60 1013.9
20260507063603 42 79 2.6 7.0 0.00 0.00 0.00 60 1013.9
20260507063103 42 81 1.7 2.6 0.00 0.00 0.00 60 1013.9
20260507062604 42 92 0.9 4.3 0.00 0.00 0.00 60 1013.9
20260507062103 42 117 0.9 2.6 0.00 0.00 0.00 59 1013.9
20260507061604 41 109 0.9 5.2 0.00 0.00 0.00 59 1013.9
20260507061103 41 104 0.9 2.6 0.00 0.00 0.00 60 1013.9
20260507055603 41 98 1.7 5.2 0.00 0.00 0.00 60 1013.9
20260507055104 41 96 0.9 2.6 0.00 0.00 0.00 59 1013.9
20260507054103 41 88 0.9 2.6 0.00 0.00 0.00 59 1013.9
20260507053603 42 68 0.0 0.9 0.00 0.00 0.00 59 1013.9
20260507053103 42 67 0.9 2.6 0.00 0.00 0.00 59 1013.9
20260507051603 43 107 0.0 2.6 0.00 0.00 0.00 57 1013.9
20260507051103 43 115 0.9 2.6 0.00 0.00 0.00 57 1013.9
20260507050603 43 118 0.9 2.6 0.00 0.00 0.00 57 1013.9
20260507050104 43 120 0.9 2.6 0.00 0.00 0.00 57 1014.2
20260507045603 43 111 0.9 5.2 0.00 0.00 0.00 56 1014.2
20260507045103 43 103 0.0 2.6 0.00 0.00 0.00 56 1014.2
20260507044104 44 111 1.7 5.2 0.00 0.00 0.00 55 1014.2
20260507043603 44 117 0.9 4.3 0.00 0.00 0.00 55 1014.2
20260507043103 44 109 0.0 2.6 0.00 0.00 0.00 55 1014.2
20260507042103 44 118 0.9 7.8 0.00 0.00 0.00 55 1014.2
20260507041603 44 102 0.9 2.6 0.00 0.00 0.00 55 1014.9
20260507041103 44 108 0.9 5.2 0.00 0.00 0.00 55 1014.9
20260507040603 44 113 1.7 6.1 0.00 0.00 0.00 55 1014.9
20260507040104 44 95 1.7 5.2 0.00 0.00 0.00 55 1014.9
20260507035603 44 105 2.6 6.1 0.00 0.00 0.00 55 1014.9
20260507035103 45 105 0.9 6.1 0.00 0.00 0.00 55 1014.9
20260507034603 45 80 0.9 2.6 0.00 0.00 0.00 54 1014.9
20260507034103 45 101 0.9 2.6 0.00 0.00 0.00 54 1014.9
20260507033603 45 98 1.7 5.2 0.00 0.00 0.00 54 1014.9
20260507033103 45 100 1.7 5.2 0.00 0.00 0.00 54 1014.9
20260507032604 45 96 1.7 5.2 0.00 0.00 0.00 53 1014.9
20260507032103 46 109 0.9 1.7 0.00 0.00 0.00 53 1014.9
20260507031604 46 81 0.9 2.6 0.00 0.00 0.00 52 1014.9
20260507031103 46 80 0.9 2.6 0.00 0.00 0.00 51 1014.9
20260507030603 47 78 0.9 2.6 0.00 0.00 0.00 51 1014.9
20260507025603 47 73 1.7 2.6 0.00 0.00 0.00 50 1014.6
20260507025103 47 101 0.0 2.6 0.00 0.00 0.00 50 1014.6
20260507024603 47 101 0.9 2.6 0.00 0.00 0.00 49 1014.6
20260507024103 47 101 0.9 2.6 0.00 0.00 0.00 49 1014.6
20260507023603 48 101 0.9 2.6 0.00 0.00 0.00 49 1014.6
20260507023103 48 101 0.9 1.7 0.00 0.00 0.00 49 1014.6
20260507022603 48 52 0.9 2.6 0.00 0.00 0.00 48 1014.6
20260507022103 48 51 0.0 2.6 0.00 0.00 0.00 49 1014.6
20260507021603 49 49 0.9 2.6 0.00 0.00 0.00 49 1014.6
20260507021103 49 47 1.7 2.6 0.00 0.00 0.00 50 1014.6
20260507020603 49 60 0.9 2.6 0.00 0.00 0.00 49 1014.6
20260507020103 49 76 0.9 2.6 0.00 0.00 0.00 49 1014.6
20260507015603 49 73 0.9 2.6 0.00 0.00 0.00 48 1014.6
20260507015104 49 74 0.0 2.6 0.00 0.00 0.00 49 1014.6
20260507014604 50 24 0.9 1.7 0.00 0.00 0.00 49 1014.6
20260507013603 50 22 0.0 0.0 0.00 0.00 0.00 48 1014.6
20260507013104 50 22 0.0 0.0 0.00 0.00 0.00 48 1014.6
20260507012603 50 22 0.9 1.7 0.00 0.00 0.00 47 1014.6
20260507012103 50 22 0.9 2.6 0.00 0.00 0.00 47 1014.6
20260507011603 50 22 1.7 2.6 0.00 0.00 0.00 46 1014.6
20260507011103 50 355 1.7 2.6 0.00 0.00 0.00 45 1014.6
20260507010603 50 355 0.9 2.6 0.00 0.00 0.00 45 1014.6
20260507005603 51 1 2.6 4.3 0.00 0.00 0.00 44 1014.9
20260507005103 51 2 2.6 6.1 0.00 0.00 0.00 44 1014.9
20260507004603 51 0 1.7 2.6 0.00 0.00 0.00 45 1014.9
20260507004103 51 0 2.6 6.1 0.00 0.00 0.00 45 1014.9
20260507003603 51 351 2.6 5.2 0.00 0.00 0.00 45 1014.9
20260507002103 52 348 3.5 7.0 0.00 0.00 0.00 43 1014.9
20260507001603 52 355 4.3 7.0 0.00 0.00 0.00 43 1014.9
20260507001103 52 351 5.2 8.7 0.00 0.00 0.00 42 1014.9
20260507000603 52 320 6.1 11.3 0.00 0.00 0.00 41 1014.9
20260506235603 52 306 5.2 10.4 0.00 0.00 0.00 41 1014.9
20260506235103 52 313 6.1 10.4 0.00 0.00 0.00 41 1014.9
20260506234603 52 308 5.2 13.9 0.00 0.00 0.00 41 1014.9
20260506234103 52 301 5.2 10.4 0.00 0.00 0.00 41 1014.9
20260506233603 52 306 5.2 10.4 0.00 0.00 0.00 41 1014.9
20260506232103 52 294 4.3 10.4 0.00 0.00 0.00 42 1014.9
20260506231603 52 308 5.2 11.3 0.00 0.00 0.00 41 1014.9
20260506231103 52 330 10.4 13.9 0.00 0.00 0.00 40 1014.9
20260506230603 53 325 6.1 11.3 0.00 0.00 0.00 42 1014.9
20260506230103 53 254 5.2 10.4 0.00 0.00 0.00 42 1015.6
20260506225603 52 281 6.1 12.2 0.00 0.00 0.00 41 1015.6
20260506225103 52 316 5.2 10.4 0.00 0.00 0.00 43 1015.6
20260506224603 51 296 6.1 14.8 0.00 0.00 0.00 43 1015.6
20260506224103 52 299 6.1 13.0 0.00 0.00 0.00 42 1015.6
20260506223603 52 316 7.8 14.8 0.00 0.00 0.00 43 1015.6
20260506223103 51 304 6.1 13.0 0.00 0.00 0.00 43 1015.6
20260506222603 51 315 7.8 13.9 0.00 0.00 0.00 42 1015.6
20260506221603 52 303 7.8 15.6 0.00 0.00 0.00 42 1015.6
20260506221103 52 296 6.1 12.2 0.00 0.00 0.00 42 1015.6
20260506215603 51 289 7.0 12.2 0.00 0.00 0.00 43 1016.3
20260506215104 51 274 6.1 13.0 0.00 0.00 0.00 43 1016.3
20260506214603 51 293 5.2 10.4 0.00 0.00 0.00 44 1016.3
20260506214104 50 270 6.1 12.2 0.00 0.00 0.00 43 1016.3
20260506213603 51 261 7.8 12.2 0.00 0.00 0.00 43 1016.3
20260506213103 51 266 7.8 14.8 0.00 0.00 0.00 43 1016.3
20260506212603 51 293 7.8 17.4 0.00 0.00 0.00 43 1016.3
20260506211103 51 313 8.7 14.8 0.00 0.00 0.00 43 1016.3
20260506210103 50 285 10.4 13.9 0.00 0.00 0.00 43 1016.9
20260506205103 50 274 5.2 17.4 0.00 0.00 0.00 44 1016.9
20260506204104 50 303 6.1 13.0 0.00 0.00 0.00 45 1016.9
20260506203603 50 277 8.7 14.8 0.00 0.00 0.00 44 1016.9
20260506203103 49 299 7.0 15.6 0.00 0.00 0.00 44 1016.9
20260506202603 49 319 10.4 17.4 0.00 0.00 0.00 44 1016.9
20260506202103 50 316 8.7 19.1 0.00 0.00 0.00 44 1016.9
20260506201103 49 286 8.7 17.4 0.00 0.00 0.00 45 1016.9
20260506194103 48 279 11.3 17.4 0.00 0.00 0.00 46 1017.3
20260506193104 48 296 8.7 17.4 0.00 0.00 0.00 45 1017.3
20260506192603 48 288 6.1 12.2 0.00 0.00 0.00 46 1017.3
20260506192103 48 282 8.7 17.4 0.00 0.00 0.00 45 1017.3
20260506191603 48 285 7.8 19.1 0.00 0.00 0.00 46 1017.3
20260506191104 47 301 8.7 17.4 0.00 0.00 0.00 46 1017.3
20260506190603 47 292 9.6 17.4 0.00 0.00 0.00 47 1017.3
20260506185603 47 301 6.1 13.9 0.00 0.00 0.00 47 1017.6
20260506185103 47 310 8.7 15.6 0.00 0.00 0.00 48 1017.6
20260506184103 46 309 7.8 17.4 0.00 0.00 0.00 48 1017.6
20260506183603 46 288 10.4 14.8 0.00 0.00 0.00 48 1017.6
20260506183103 46 309 8.7 14.8 0.00 0.00 0.00 49 1017.6
20260506182603 46 297 7.0 17.4 0.00 0.00 0.00 48 1017.6
20260506182103 46 314 7.8 15.6 0.00 0.00 0.00 49 1017.6
20260506181603 46 320 7.8 13.0 0.00 0.00 0.00 49 1017.6
20260506181103 45 321 9.6 14.8 0.00 0.00 0.00 50 1017.6
20260506180603 45 310 9.6 13.9 0.00 0.00 0.00 49 1017.6
20260506174603 45 315 7.0 12.2 0.00 0.00 0.00 50 1017.9
20260506174103 45 312 12.2 18.2 0.00 0.00 0.00 50 1017.9
20260506173603 45 332 8.7 17.4 0.00 0.00 0.00 50 1017.9
20260506173103 44 299 7.8 15.6 0.00 0.00 0.00 50 1017.9
20260506172603 44 310 11.3 17.4 0.00 0.00 0.00 50 1017.9
20260506172103 44 321 11.3 18.2 0.00 0.00 0.00 50 1017.9
20260506171604 44 317 8.7 14.8 0.00 0.00 0.00 50 1017.9
20260506171103 44 324 11.3 15.6 0.00 0.00 0.00 50 1017.9
20260506170603 44 312 9.6 20.0 0.00 0.00 0.00 51 1017.9
20260506170103 44 317 7.8 17.4 0.00 0.00 0.00 51 1017.9
20260506165603 44 296 7.0 17.4 0.00 0.00 0.00 51 1017.9
20260506165103 44 324 9.6 17.4 0.00 0.00 0.00 50 1017.9
20260506164603 44 326 7.8 17.4 0.00 0.00 0.00 51 1017.9
20260506164103 44 315 8.7 13.0 0.00 0.00 0.00 51 1017.9
20260506163603 43 324 7.0 14.8 0.00 0.00 0.00 52 1017.9
20260506163104 43 331 12.2 17.4 0.00 0.00 0.00 51 1017.9
20260506162603 43 276 8.7 13.9 0.00 0.00 0.00 52 1017.9
20260506161603 43 303 6.1 13.9 0.00 0.00 0.00 52 1017.9
20260506161103 43 297 8.7 15.6 0.00 0.00 0.00 52 1017.9
20260506160603 43 311 7.0 15.6 0.00 0.00 0.00 53 1017.9
20260506160103 43 291 6.1 13.0 0.00 0.00 0.00 52 1017.9
20260506155604 43 332 7.8 17.4 0.00 0.00 0.00 53 1017.9
20260506155103 43 327 8.7 18.2 0.00 0.00 0.00 53 1017.9
20260506154103 42 299 4.3 14.8 0.00 0.00 0.00 54 1017.9
20260506153603 42 343 9.6 14.8 0.00 0.00 0.00 54 1017.9
20260506153103 42 328 8.7 13.9 0.00 0.00 0.00 54 1017.9
20260506152603 42 333 7.8 13.0 0.00 0.00 0.00 54 1017.9
20260506152103 42 315 7.0 10.4 0.00 0.00 0.00 54 1017.9
20260506151603 42 307 6.1 12.2 0.00 0.00 0.00 55 1017.9
20260506151103 42 303 6.1 10.4 0.00 0.00 0.00 55 1017.9
20260506150603 42 309 6.1 12.2 0.00 0.00 0.00 56 1017.9
20260506145603 42 318 8.7 13.9 0.00 0.00 0.00 56 1017.9
20260506145103 42 302 6.1 12.2 0.00 0.00 0.00 56 1017.9
20260506144603 42 311 6.1 11.3 0.00 0.00 0.00 57 1017.9
20260506143603 41 308 8.7 13.9 0.00 0.00 0.00 56 1017.9
20260506143103 41 332 8.7 11.3 0.00 0.00 0.00 56 1017.9
20260506142603 41 308 8.7 13.0 0.00 0.00 0.00 56 1017.9
20260506142103 41 300 6.1 12.2 0.00 0.00 0.00 57 1017.9
20260506141603 41 291 6.1 11.3 0.00 0.00 0.00 58 1017.9
20260506141103 41 330 4.3 12.2 0.00 0.00 0.00 60 1017.9
20260506140603 41 288 4.3 11.3 0.00 0.00 0.00 59 1017.9
20260506135603 41 320 6.1 10.4 0.00 0.00 0.00 60 1017.6
20260506135103 40 305 6.1 12.2 0.00 0.00 0.00 60 1017.6
20260506134603 40 303 6.1 10.4 0.00 0.00 0.00 61 1017.6
20260506134103 40 322 4.3 7.0 0.00 0.00 0.00 62 1017.6
20260506133603 40 332 6.1 8.7 0.00 0.00 0.00 61 1017.6
20260506133103 40 299 4.3 7.8 0.00 0.00 0.00 61 1017.6
20260506132603 40 287 4.3 8.7 0.00 0.00 0.00 61 1017.6
20260506131603 39 313 4.3 7.8 0.00 0.00 0.00 62 1017.6
20260506130604 39 313 1.7 5.2 0.00 0.00 0.00 64 1017.6
20260506124604 38 325 0.9 4.3 0.00 0.00 0.00 66 1016.9
20260506124104 38 324 0.9 2.6 0.00 0.00 0.00 67 1016.9
20260506123603 38 318 0.9 2.6 0.00 0.00 0.00 67 1016.9
20260506123103 37 329 0.9 2.6 0.00 0.00 0.00 67 1016.9
20260506122103 37 297 0.0 0.0 0.00 0.00 0.00 69 1016.9
20260506121603 36 297 0.0 0.9 0.00 0.00 0.00 69 1016.9
20260506121103 36 297 0.9 2.6 0.00 0.00 0.00 70 1016.9
20260506120603 36 297 0.0 2.6 0.00 0.00 0.00 70 1016.9
20260506120103 36 290 0.9 2.6 0.00 0.00 0.00 70 1016.3
20260506115604 36 299 0.9 6.1 0.00 0.00 0.00 70 1016.3
20260506115103 36 317 1.7 2.6 0.00 0.00 0.00 70 1016.3
20260506114103 36 283 1.7 6.1 0.00 0.00 0.00 70 1016.3
20260506113603 36 295 2.6 6.1 0.00 0.00 0.00 70 1016.3
20260506113103 36 282 1.7 2.6 0.00 0.00 0.00 70 1016.3
20260506112603 36 305 0.9 2.6 0.00 0.00 0.00 70 1016.3
20260506112104 36 288 0.0 1.7 0.00 0.00 0.00 70 1016.3
20260506111603 36 288 0.0 0.9 0.00 0.00 0.00 70 1016.3
20260506111103 36 288 0.0 0.9 0.00 0.00 0.00 71 1016.3
20260506110604 36 312 0.9 2.6 0.00 0.00 0.00 71 1016.3
20260506105603 36 311 0.0 0.9 0.00 0.00 0.00 71 1015.9
20260506105103 36 309 0.9 2.6 0.00 0.00 0.00 71 1015.9
20260506104603 36 311 1.7 4.3 0.00 0.00 0.00 70 1015.9
20260506104103 35 282 0.9 2.6 0.00 0.00 0.00 70 1015.9
20260506103603 35 298 1.7 2.6 0.00 0.00 0.00 70 1015.9
20260506103103 35 309 1.7 2.6 0.00 0.00 0.00 70 1015.9
20260506102603 35 304 0.9 6.1 0.00 0.00 0.00 70 1015.9
20260506101603 35 317 0.9 2.6 0.00 0.00 0.00 70 1015.9
20260506101103 35 317 0.9 2.6 0.00 0.00 0.00 70 1015.9
20260506100604 35 317 0.0 1.7 0.00 0.00 0.00 70 1015.9
20260506095604 35 317 0.9 2.6 0.00 0.00 0.00 70 1015.6
20260506095103 35 317 0.9 2.6 0.00 0.00 0.00 70 1015.6
20260506094603 34 315 0.9 2.6 0.00 0.00 0.00 70 1015.6
20260506094104 34 321 0.9 2.6 0.00 0.00 0.00 71 1015.6
20260506093603 35 319 0.9 2.6 0.00 0.00 0.00 70 1015.6
20260506093103 35 302 1.7 2.6 0.00 0.00 0.00 70 1015.6
20260506092604 35 302 0.9 1.7 0.00 0.00 0.00 69 1015.6
20260506092103 35 302 0.0 1.7 0.00 0.00 0.00 69 1015.6
20260506091603 35 302 0.0 0.0 0.00 0.00 0.00 69 1015.6
20260506091103 35 302 0.0 0.0 0.00 0.00 0.00 69 1015.6
20260506090603 35 302 0.0 0.0 0.00 0.00 0.00 69 1015.6
20260506085603 35 302 0.0 0.0 0.00 0.00 0.00 69 1015.2
20260506085103 35 302 0.0 0.0 0.00 0.00 0.00 69 1015.2
20260506084103 35 302 0.0 0.9 0.00 0.00 0.00 69 1015.2
20260506083603 35 302 0.0 1.7 0.00 0.00 0.00 68 1015.2
20260506083104 35 301 0.9 2.6 0.00 0.00 0.00 68 1015.2
20260506082603 35 300 0.9 2.6 0.00 0.00 0.00 68 1015.2
20260506082103 35 299 0.0 2.6 0.00 0.00 0.00 68 1015.2
20260506081604 35 298 0.9 1.7 0.00 0.00 0.00 69 1015.2
20260506080604 34 296 0.0 1.7 0.00 0.00 0.00 69 1015.2
20260506073103 36 315 0.0 1.7 0.00 0.00 0.00 68 1015.2